This is the latest recevied weather packets stored in our database for station/object WW4HG. If no packets are shown the sender has not sent any weather packets the latest 10 day(s).
| Time | Temp. | Humidity | Pressure | Rain* | Wind** | Luminosity | Snow |
|---|---|---|---|---|---|---|---|
| 1778099601 | 27.78° C | 35% | 1014.6 hPa | 0 mm | - | 66 W/m² | - |
| 1778099298 | 27.78° C | 35% | 1014.3 hPa | 0 mm | - | 80 W/m² | - |
| 1778098995 | 27.78° C | 35% | 1014.6 hPa | 0 mm | - | 60 W/m² | - |
| 1778098691 | 27.78° C | 36% | 1014.6 hPa | 0 mm | - | 62 W/m² | - |
| 1778098389 | 27.78° C | 36% | 1015 hPa | 0 mm | - | 62 W/m² | - |
| 1778098086 | 27.78° C | 35% | 1014.6 hPa | 0 mm | - | 68 W/m² | - |
| 1778097781 | 27.78° C | 35% | 1015 hPa | 0 mm | - | 77 W/m² | - |
| 1778097478 | 27.78° C | 35% | 1015 hPa | 0 mm | - | 137 W/m² | - |
| 1778097175 | 27.78° C | 35% | 1015 hPa | 0 mm | - | 70 W/m² | - |
| 1778096872 | 27.78° C | 36% | 1015 hPa | 0 mm | - | 65 W/m² | - |
| 1778096568 | 27.78° C | 35% | 1015.3 hPa | 0 mm | - | 68 W/m² | - |
| 1778096266 | 27.78° C | 35% | 1015 hPa | 0 mm | - | 66 W/m² | - |
| 1778095963 | 27.78° C | 35% | 1015.3 hPa | 0 mm | - | 79 W/m² | - |
| 1778095659 | 27.78° C | 35% | 1015 hPa | 0 mm | - | 111 W/m² | - |
| 1778095356 | 27.22° C | 35% | 1015.6 hPa | 0 mm | - | 98 W/m² | - |
| 1778095053 | 27.22° C | 36% | 1015.6 hPa | 0 mm | - | 112 W/m² | - |
| 1778094749 | 27.22° C | 35% | 1015.6 hPa | 0 mm | - | 138 W/m² | - |
| 1778094446 | 27.22° C | 35% | 1015.6 hPa | 0 mm | - | 148 W/m² | - |
| 1778094143 | 27.22° C | 36% | 1015.6 hPa | 0 mm | - | 173 W/m² | - |
| 1778093840 | 27.22° C | 35% | 1016 hPa | 0 mm | - | 185 W/m² | - |
| 1778093536 | 27.22° C | 35% | 1015.6 hPa | 0 mm | - | 160 W/m² | - |
| 1778093234 | 27.22° C | 35% | 1015.6 hPa | 0 mm | - | 193 W/m² | - |
| 1778092931 | 27.22° C | 36% | 1016.3 hPa | 0 mm | - | 357 W/m² | - |
| 1778092628 | 27.22° C | 35% | 1016.3 hPa | 0 mm | - | 437 W/m² | - |
| 1778092323 | 27.22° C | 36% | 1016.7 hPa | 0 mm | - | 447 W/m² | - |
* Rain latest hour (hover to see other rain measurements)
** Current wind speed in m/s (hover to see current wind gust speed)